Location: Newark
(36.0797°N, 3.9744°E)
Time: 20:19:58
(UTC+00:00)

Vanguard 2 Rocket - Pass Details

Date: 09 December 2019
Orbit: 554 x 3326 km, 32.9° (Epoch: 24 January)

Event Time Altitude Azimuth Distance (km) Brightness Sun altitude
Rises 14:26:24 0° 202° (SSW) 7,275 12.8 18.7°
Reaches altitude 10° 14:33:21 10° 189° (S) 6,076 12.2 17.8°
Maximum altitude 14:45:30 22° 147° (SSE) 4,464 10.7 16.1°
Drops below altitude 10° 14:54:48 10° 104° (ESE) 4,586 10.2 14.7°
Sets 14:58:55 0° 90° (E) 5,151 10.3 14.1°
